When you browse on this site, cookies collect data to enhance your experience and personalize the content and advertising you see.
Visit our Privacy Policy to learn more. By continuing to use the site, you agree to this use of cookies and data.
EN

Hourly Weather Siva

Today, 12 August, Wednesday

Time Temperature Precipitation Wind Pressure Humidity
00:00 +28°C° 0 mm 5 mps 754 mmHg 50%
01:00 +27°C° 0 mm 4 mps 754 mmHg 54%
02:00 +26°C° 0 mm 3 mps 753 mmHg 59%
03:00 +25°C° 0 mm 2 mps 754 mmHg 63%
04:00 +25°C° 0 mm 2 mps 754 mmHg 67%
05:00 +24°C° 0 mm 2 mps 754 mmHg 71%
06:00 +25°C° 0 mm 2 mps 754 mmHg 67%
07:00 +26°C° 0 mm 2 mps 754 mmHg 62%
08:00 +27°C° 0 mm 3 mps 754 mmHg 57%
09:00 +29°C° 0 mm 3 mps 754 mmHg 48%
10:00 +32°C° 0 mm 4 mps 754 mmHg 39%
11:00 +34°C° 0 mm 4 mps 754 mmHg 29%
12:00 +36°C° 0 mm 5 mps 754 mmHg 25%
13:00 +39°C° 0 mm 5 mps 753 mmHg 21%
14:00 +40°C° 0 mm 6 mps 753 mmHg 16%
15:00 +41°C° 0 mm 6 mps 752 mmHg 16%
16:00 +41°C° 0 mm 7 mps 752 mmHg 16%
17:00 +41°C° 0 mm 7 mps 752 mmHg 16%
18:00 +39°C° 0 mm 7 mps 752 mmHg 19%
19:00 +38°C° 0 mm 6 mps 752 mmHg 22%
20:00 +35°C° 0 mm 6 mps 752 mmHg 24%
21:00 +33°C° 0 mm 5 mps 753 mmHg 30%
22:00 +32°C° 0 mm 5 mps 753 mmHg 36%
23:00 +29°C° 0 mm 5 mps 753 mmHg 42%

Tomorrow, 13 August, Thursday

Time Temperature Precipitation Wind Pressure Humidity
00:00 +28°C° 0 mm 4 mps 753 mmHg 48%
01:00 +27°C° 0 mm 4 mps 753 mmHg 54%
02:00 +26°C° 0 mm 3 mps 753 mmHg 59%
03:00 +25°C° 0 mm 3 mps 753 mmHg 65%
04:00 +25°C° 0 mm 3 mps 753 mmHg 70%
05:00 +24°C° 0 mm 3 mps 753 mmHg 76%
06:00 +25°C° 0 mm 3 mps 753 mmHg 74%
07:00 +26°C° 0 mm 3 mps 753 mmHg 72%
08:00 +27°C° 0 mm 4 mps 754 mmHg 70%
09:00 +29°C° 0 mm 4 mps 753 mmHg 57%
10:00 +32°C° 0 mm 4 mps 753 mmHg 44%
11:00 +34°C° 0 mm 4 mps 753 mmHg 31%
12:00 +36°C° 0 mm 4 mps 753 mmHg 26%
13:00 +37°C° 0 mm 4 mps 752 mmHg 21%
14:00 +40°C° 0 mm 5 mps 751 mmHg 16%
15:00 +41°C° 0 mm 5 mps 751 mmHg 15%
16:00 +41°C° 0 mm 5 mps 751 mmHg 14%
17:00 +42°C° 0 mm 5 mps 750 mmHg 13%
18:00 +40°C° 0 mm 5 mps 751 mmHg 16%
19:00 +38°C° 0 mm 6 mps 751 mmHg 19%
20:00 +35°C° 0 mm 6 mps 751 mmHg 22%
21:00 +34°C° 0 mm 6 mps 752 mmHg 29%
22:00 +32°C° 0 mm 5 mps 752 mmHg 35%
23:00 +30°C° 0 mm 5 mps 752 mmHg 41%

Day after tomorrow, 14 August, Friday

Time Temperature Precipitation Wind Pressure Humidity
00:00 +28°C° 0 mm 4 mps 752 mmHg 45%
01:00 +27°C° 0 mm 4 mps 752 mmHg 49%
02:00 +26°C° 0 mm 3 mps 752 mmHg 53%
03:00 +26°C° 0 mm 3 mps 752 mmHg 58%
04:00 +25°C° 0 mm 3 mps 752 mmHg 63%
05:00 +24°C° 0 mm 2 mps 752 mmHg 68%
06:00 +25°C° 0 mm 3 mps 752 mmHg 64%
07:00 +26°C° 0 mm 3 mps 752 mmHg 60%
08:00 +27°C° 0 mm 3 mps 753 mmHg 57%
09:00 +30°C° 0 mm 3 mps 753 mmHg 46%
10:00 +34°C° 0 mm 3 mps 752 mmHg 36%
11:00 +36°C° 0 mm 3 mps 752 mmHg 25%
12:00 +38°C° 0 mm 4 mps 752 mmHg 22%
13:00 +40°C° 0 mm 4 mps 751 mmHg 18%
14:00 +41°C° 0 mm 4 mps 751 mmHg 14%
15:00 +42°C° 0 mm 5 mps 750 mmHg 14%
16:00 +42°C° 0 mm 5 mps 750 mmHg 14%
17:00 +42°C° 0 mm 6 mps 749 mmHg 13%
18:00 +41°C° 0 mm 6 mps 749 mmHg 17%
19:00 +39°C° 0 mm 6 mps 750 mmHg 20%
20:00 +36°C° 0 mm 7 mps 750 mmHg 24%
21:00 +34°C° 0 mm 6 mps 750 mmHg 31%
22:00 +32°C° 0 mm 6 mps 751 mmHg 39%
23:00 +29°C° 0 mm 5 mps 751 mmHg 46%

15 August, Saturday

Time Temperature Precipitation Wind Pressure Humidity
00:00 +28°C° 0 mm 4 mps 751 mmHg 49%
01:00 +27°C° 0 mm 3 mps 751 mmHg 52%
02:00 +26°C° 0 mm 3 mps 751 mmHg 55%
03:00 +26°C° 0 mm 3 mps 751 mmHg 59%
04:00 +25°C° 0 mm 3 mps 751 mmHg 63%
05:00 +25°C° 0 mm 3 mps 751 mmHg 67%
06:00 +26°C° 0 mm 3 mps 751 mmHg 63%
07:00 +27°C° 0 mm 3 mps 751 mmHg 59%
08:00 +28°C° 0 mm 4 mps 752 mmHg 55%
09:00 +30°C° 0 mm 4 mps 751 mmHg 45%
10:00 +34°C° 0 mm 4 mps 751 mmHg 34%
11:00 +36°C° 0 mm 5 mps 751 mmHg 23%
12:00 +39°C° 0 mm 5 mps 751 mmHg 21%
13:00 +40°C° 0 mm 5 mps 750 mmHg 18%
14:00 +41°C° 0 mm 5 mps 750 mmHg 15%
15:00 +42°C° 0 mm 5 mps 749 mmHg 15%
16:00 +42°C° 0 mm 5 mps 749 mmHg 15%
17:00 +42°C° 0 mm 5 mps 749 mmHg 15%
18:00 +40°C° 0 mm 5 mps 749 mmHg 17%
19:00 +37°C° 0 mm 5 mps 749 mmHg 19%
20:00 +35°C° 0 mm 5 mps 749 mmHg 21%
21:00 +33°C° 0 mm 5 mps 750 mmHg 27%
22:00 +30°C° 0 mm 4 mps 750 mmHg 33%
23:00 +29°C° 0 mm 4 mps 750 mmHg 39%

16 August, Sunday

Time Temperature Precipitation Wind Pressure Humidity
00:00 +28°C° 0 mm 4 mps 750 mmHg 43%
01:00 +27°C° 0 mm 3 mps 750 mmHg 47%
02:00 +26°C° 0 mm 3 mps 750 mmHg 51%
03:00 +25°C° 0 mm 3 mps 750 mmHg 55%
04:00 +24°C° 0 mm 2 mps 750 mmHg 59%
05:00 +23°C° 0 mm 2 mps 750 mmHg 63%
06:00 +25°C° 0 mm 2 mps 751 mmHg 60%
07:00 +26°C° 0 mm 3 mps 751 mmHg 56%
08:00 +27°C° 0 mm 3 mps 751 mmHg 52%
09:00 +30°C° 0 mm 3 mps 751 mmHg 42%
10:00 +33°C° 0 mm 4 mps 751 mmHg 32%
11:00 +36°C° 0 mm 4 mps 751 mmHg 21%
12:00 +38°C° 0 mm 4 mps 751 mmHg 19%
13:00 +40°C° 0 mm 4 mps 750 mmHg 16%
14:00 +42°C° 0 mm 4 mps 750 mmHg 13%
15:00 +42°C° 0 mm 4 mps 749 mmHg 13%
16:00 +42°C° 0 mm 5 mps 749 mmHg 13%
17:00 +43°C° 0 mm 5 mps 749 mmHg 13%
18:00 +41°C° 0 mm 5 mps 749 mmHg 16%
19:00 +39°C° 0 mm 6 mps 749 mmHg 19%
20:00 +36°C° 0 mm 6 mps 750 mmHg 23%
21:00 +34°C° 0 mm 6 mps 750 mmHg 27%
22:00 +33°C° 0 mm 5 mps 750 mmHg 32%
23:00 +30°C° 0 mm 5 mps 750 mmHg 36%

17 August, Monday

Time Temperature Precipitation Wind Pressure Humidity
00:00 +29°C° 0 mm 4 mps 750 mmHg 41%
01:00 +28°C° 0 mm 3 mps 750 mmHg 46%
02:00 +26°C° 0 mm 2 mps 750 mmHg 51%
03:00 +26°C° 0 mm 2 mps 750 mmHg 54%
04:00 +25°C° 0 mm 2 mps 750 mmHg 57%
05:00 +25°C° 0 mm 2 mps 750 mmHg 60%
06:00 +25°C° 0 mm 2 mps 751 mmHg 58%
07:00 +26°C° 0 mm 2 mps 751 mmHg 56%
08:00 +27°C° 0 mm 2 mps 751 mmHg 55%
09:00 +29°C° 0 mm 3 mps 751 mmHg 47%
10:00 +31°C° 0 mm 3 mps 751 mmHg 38%
11:00 +34°C° 0 mm 3 mps 751 mmHg 30%
12:00 +36°C° 0 mm 3 mps 751 mmHg 26%
13:00 +38°C° 0 mm 4 mps 750 mmHg 22%
14:00 +40°C° 0 mm 4 mps 750 mmHg 18%
15:00 +41°C° 0 mm 4 mps 750 mmHg 16%
16:00 +41°C° 0 mm 4 mps 749 mmHg 15%
17:00 +41°C° 0 mm 4 mps 749 mmHg 14%
18:00 +40°C° 0 mm 4 mps 749 mmHg 16%
19:00 +37°C° 0 mm 4 mps 750 mmHg 18%
20:00 +35°C° 0 mm 4 mps 750 mmHg 20%
21:00 +33°C° 0 mm 4 mps 751 mmHg 26%
22:00 +32°C° 0 mm 4 mps 751 mmHg 33%
23:00 +29°C° 0 mm 5 mps 751 mmHg 40%
Show more